CEB905 RPLL-RPVE

Flight info

Callsign CEB905
Flight time 0h 36m
Altitude 25000
Route VERDE2V VERDE W24 TAPER TAPER7A
Aircraft A320/M-SDE2E3FGHIRWXY/LB1

Departure

Time 2026-04-24 03:40
Airport Ninoy Aquino International Airport (RPLL)

Arrival

Time 2026-04-24 04:17
Airport Godofredo P. Ramos Airport (RPVE)
Time Latitude Longitude Altitude Speed Heading
2026-04-24 03:24 14.52378 121.00795 82 ft 0 kts 44°
2026-04-24 03:32 14.52377 121.00794 82 ft 1 kts 44°
2026-04-24 03:32 14.52366 121.00784 82 ft 2 kts 44°
2026-04-24 03:33 14.52356 121.00773 82 ft 2 kts 44°
2026-04-24 03:33 14.52345 121.00762 82 ft 2 kts 44°
2026-04-24 03:33 14.52334 121.00751 82 ft 2 kts 44°
2026-04-24 03:33 14.52323 121.00741 82 ft 2 kts 44°
2026-04-24 03:34 14.52316 121.00734 82 ft 2 kts 38°
2026-04-24 03:34 14.52302 121.00729 82 ft 2 kts
2026-04-24 03:34 14.52288 121.00731 82 ft 2 kts 331°
2026-04-24 03:34 14.52280 121.00736 82 ft 1 kts 314°
2026-04-24 03:35 14.52276 121.00741 82 ft 0 kts 314°
2026-04-24 03:36 14.52277 121.00741 82 ft 0 kts 314°
2026-04-24 03:36 14.52286 121.00731 82 ft 3 kts 314°
2026-04-24 03:37 14.52309 121.00707 82 ft 6 kts 315°
2026-04-24 03:37 14.52332 121.00684 82 ft 7 kts 316°
2026-04-24 03:37 14.52378 121.00639 82 ft 10 kts 316°
2026-04-24 03:37 14.52436 121.00577 82 ft 13 kts 313°
2026-04-24 03:38 14.52490 121.00520 82 ft 8 kts 300°
2026-04-24 03:38 14.52467 121.00463 82 ft 9 kts 223°
2026-04-24 03:38 14.52415 121.00411 82 ft 10 kts 226°
2026-04-24 03:38 14.52369 121.00397 82 ft 7 kts 146°
2026-04-24 03:39 14.52350 121.00417 82 ft 0 kts 133°
2026-04-24 03:39 14.52343 121.00425 82 ft 13 kts 133°
2026-04-24 03:39 14.52075 121.00703 82 ft 91 kts 134°
2026-04-24 03:40 14.51457 121.01337 106 ft 149 kts 133°
2026-04-24 03:40 14.50708 121.02108 597 ft 155 kts 133°
2026-04-24 03:40 14.49933 121.02911 1222 ft 158 kts 133°
2026-04-24 03:40 14.49171 121.03702 1842 ft 155 kts 133°
2026-04-24 03:41 14.48417 121.04483 2246 ft 154 kts 133°
2026-04-24 03:41 14.47655 121.05272 2629 ft 155 kts 133°
2026-04-24 03:41 14.46885 121.06073 3017 ft 157 kts 133°
2026-04-24 03:41 14.46095 121.06890 3350 ft 163 kts 133°
2026-04-24 03:42 14.45259 121.07759 3597 ft 177 kts 133°
2026-04-24 03:42 14.44317 121.08740 3837 ft 196 kts 134°
2026-04-24 03:42 14.43146 121.09564 4114 ft 217 kts 162°
2026-04-24 03:42 14.41549 121.09570 4408 ft 241 kts 193°
2026-04-24 03:43 14.39859 121.09109 4802 ft 258 kts 193°
2026-04-24 03:43 14.38056 121.08634 5222 ft 275 kts 193°
2026-04-24 03:43 14.36151 121.08153 5850 ft 283 kts 193°
2026-04-24 03:43 14.34250 121.07682 6661 ft 285 kts 193°
2026-04-24 03:44 14.32318 121.07208 7439 ft 287 kts 193°
2026-04-24 03:44 14.30386 121.06735 8203 ft 290 kts 193°
2026-04-24 03:44 14.28437 121.06125 8954 ft 293 kts 202°
2026-04-24 03:44 14.26614 121.05160 9707 ft 296 kts 212°
2026-04-24 03:45 14.24895 121.03984 10394 ft 300 kts 214°
2026-04-24 03:45 14.23161 121.02747 10756 ft 315 kts 215°
2026-04-24 03:45 14.21298 121.01413 11072 ft 332 kts 215°
2026-04-24 03:45 14.19371 121.00040 11617 ft 340 kts 215°
2026-04-24 03:46 14.17406 120.98647 12253 ft 342 kts 215°
2026-04-24 03:46 14.15444 120.97260 12891 ft 344 kts 215°
2026-04-24 03:46 14.13461 120.95860 13491 ft 347 kts 215°
2026-04-24 03:46 14.11473 120.94456 14053 ft 350 kts 215°
2026-04-24 03:47 14.09451 120.93030 14568 ft 354 kts 215°
2026-04-24 03:47 14.07420 120.91598 15073 ft 357 kts 215°
2026-04-24 03:47 14.05227 120.90319 15553 ft 362 kts 200°
2026-04-24 03:47 14.02745 120.89891 16009 ft 367 kts 179°
2026-04-24 03:48 14.00206 120.90323 16493 ft 369 kts 166°
2026-04-24 03:48 13.97728 120.90978 16926 ft 372 kts 166°
2026-04-24 03:48 13.95185 120.91657 17383 ft 375 kts 166°
2026-04-24 03:48 13.92633 120.92331 17824 ft 378 kts 166°
2026-04-24 03:49 13.90100 120.92992 18276 ft 380 kts 166°
2026-04-24 03:49 13.87516 120.93662 18722 ft 383 kts 166°
2026-04-24 03:49 13.84926 120.94329 19123 ft 385 kts 166°
2026-04-24 03:49 13.82284 120.95008 19553 ft 388 kts 166°
2026-04-24 03:50 13.79661 120.95681 19966 ft 390 kts 166°
2026-04-24 03:50 13.77039 120.96354 20378 ft 393 kts 167°
2026-04-24 03:50 13.74359 120.97040 20778 ft 395 kts 167°
2026-04-24 03:50 13.71676 120.97727 21180 ft 397 kts 167°
2026-04-24 03:51 13.68992 120.98415 21571 ft 400 kts 167°
2026-04-24 03:51 13.66257 120.99114 21961 ft 402 kts 167°
2026-04-24 03:51 13.63536 120.99811 22353 ft 404 kts 167°
2026-04-24 03:51 13.60777 121.00517 22737 ft 407 kts 167°
2026-04-24 03:52 13.58038 121.01218 22925 ft 409 kts 167°
2026-04-24 03:52 13.55257 121.01929 22929 ft 408 kts 167°
2026-04-24 03:52 13.52532 121.02700 22932 ft 409 kts 162°
2026-04-24 03:52 13.49855 121.03816 22933 ft 409 kts 154°
2026-04-24 03:53 13.47376 121.05248 22947 ft 410 kts 148°
2026-04-24 03:53 13.45008 121.06881 22969 ft 410 kts 146°
2026-04-24 03:53 13.42670 121.08548 22989 ft 409 kts 146°
2026-04-24 03:53 13.40336 121.10212 23003 ft 409 kts 146°
2026-04-24 03:54 13.37967 121.11888 23012 ft 409 kts 146°
2026-04-24 03:54 13.35625 121.13537 23024 ft 409 kts 146°
2026-04-24 03:54 13.33268 121.15191 23028 ft 409 kts 146°
2026-04-24 03:54 13.30894 121.16856 23028 ft 410 kts 146°
2026-04-24 03:55 13.28546 121.18504 23025 ft 410 kts 146°
2026-04-24 03:55 13.26197 121.20152 23016 ft 411 kts 146°
2026-04-24 03:55 13.23837 121.21806 23005 ft 410 kts 146°
2026-04-24 03:55 13.21471 121.23466 22989 ft 411 kts 146°
2026-04-24 03:56 13.19120 121.25114 22979 ft 411 kts 146°
2026-04-24 03:56 13.16762 121.26768 22977 ft 410 kts 146°
2026-04-24 03:56 13.14402 121.28421 22979 ft 410 kts 146°
2026-04-24 03:56 13.12034 121.30080 22982 ft 410 kts 146°
2026-04-24 03:57 13.09670 121.31736 22985 ft 410 kts 146°
2026-04-24 03:57 13.07335 121.33371 22985 ft 410 kts 146°
2026-04-24 03:57 13.04965 121.35028 22983 ft 410 kts 146°
2026-04-24 03:57 13.02613 121.36674 22982 ft 410 kts 146°
2026-04-24 03:58 13.00256 121.38324 22978 ft 410 kts 145°
2026-04-24 03:58 12.97871 121.39992 22973 ft 410 kts 145°
2026-04-24 03:58 12.95515 121.41641 22970 ft 411 kts 145°
2026-04-24 03:58 12.93158 121.43289 22852 ft 411 kts 145°
2026-04-24 03:59 12.90813 121.44929 22605 ft 408 kts 145°
2026-04-24 03:59 12.88428 121.46596 22337 ft 406 kts 145°
2026-04-24 03:59 12.86118 121.48210 22063 ft 404 kts 145°
2026-04-24 03:59 12.83793 121.49835 21724 ft 402 kts 145°
2026-04-24 04:00 12.81468 121.51459 21296 ft 400 kts 145°
2026-04-24 04:00 12.79180 121.53057 20840 ft 396 kts 145°
2026-04-24 04:00 12.76909 121.54644 20378 ft 393 kts 145°
2026-04-24 04:00 12.74675 121.56203 19930 ft 390 kts 145°
2026-04-24 04:01 12.72419 121.57777 19441 ft 388 kts 145°
2026-04-24 04:01 12.70214 121.59315 18967 ft 385 kts 145°
2026-04-24 04:01 12.67988 121.60868 18487 ft 383 kts 145°
2026-04-24 04:01 12.65797 121.62396 18025 ft 381 kts 145°
2026-04-24 04:02 12.63623 121.63913 17545 ft 379 kts 145°
2026-04-24 04:02 12.61449 121.65428 17088 ft 376 kts 145°
2026-04-24 04:02 12.59264 121.66951 16633 ft 374 kts 146°
2026-04-24 04:02 12.57125 121.68443 16166 ft 373 kts 146°
2026-04-24 04:03 12.54980 121.69938 15702 ft 371 kts 146°
2026-04-24 04:03 12.52847 121.71424 15231 ft 370 kts 146°
2026-04-24 04:03 12.50741 121.72890 14775 ft 368 kts 146°
2026-04-24 04:03 12.48619 121.74369 14306 ft 366 kts 146°
2026-04-24 04:04 12.46520 121.75829 13847 ft 364 kts 146°
2026-04-24 04:04 12.44423 121.77288 13376 ft 362 kts 146°
2026-04-24 04:04 12.42344 121.78734 12907 ft 360 kts 146°
2026-04-24 04:04 12.40271 121.80175 12429 ft 357 kts 146°
2026-04-24 04:05 12.38217 121.81566 11957 ft 354 kts 150°
2026-04-24 04:05 12.35904 121.82357 11472 ft 350 kts 174°
2026-04-24 04:05 12.33509 121.82191 11056 ft 345 kts 191°
2026-04-24 04:05 12.31163 121.81664 10627 ft 341 kts 192°
2026-04-24 04:06 12.28838 121.81134 10392 ft 330 kts 192°
2026-04-24 04:06 12.26641 121.80639 10254 ft 317 kts 192°
2026-04-24 04:06 12.24503 121.80164 10119 ft 305 kts 192°
2026-04-24 04:06 12.22478 121.79717 9935 ft 296 kts 191°
2026-04-24 04:07 12.20475 121.79279 9558 ft 294 kts 191°
2026-04-24 04:07 12.18454 121.78839 9183 ft 293 kts 191°
2026-04-24 04:07 12.16466 121.78406 8813 ft 291 kts 191°
2026-04-24 04:07 12.14485 121.77976 8448 ft 289 kts 191°
2026-04-24 04:08 12.12532 121.77554 8090 ft 288 kts 191°
2026-04-24 04:08 12.10566 121.77127 7736 ft 286 kts 191°
2026-04-24 04:08 12.08614 121.76705 7385 ft 285 kts 191°
2026-04-24 04:08 12.06668 121.76283 7031 ft 283 kts 191°
2026-04-24 04:09 12.04762 121.75870 6687 ft 281 kts 191°
2026-04-24 04:09 12.02823 121.75449 6338 ft 280 kts 191°
2026-04-24 04:09 12.00934 121.75039 6000 ft 278 kts 190°
2026-04-24 04:09 11.99032 121.74627 5662 ft 276 kts 190°
2026-04-24 04:10 11.97142 121.74218 5322 ft 275 kts 190°
2026-04-24 04:10 11.95267 121.73811 5000 ft 273 kts 190°
2026-04-24 04:10 11.93426 121.73412 4687 ft 271 kts 189°
2026-04-24 04:11 11.89791 121.73536 4114 ft 256 kts 153°
2026-04-24 04:11 11.88253 121.74326 4090 ft 241 kts 149°
2026-04-24 04:11 11.86799 121.75103 4053 ft 228 kts 149°
2026-04-24 04:11 11.85422 121.75835 4006 ft 216 kts 150°
2026-04-24 04:12 11.84190 121.76629 3899 ft 203 kts 128°
2026-04-24 04:12 11.83707 121.77914 3715 ft 196 kts 83°
2026-04-24 04:12 11.84179 121.79195 3499 ft 196 kts 59°
2026-04-24 04:12 11.84874 121.80397 3254 ft 195 kts 61°
2026-04-24 04:13 11.85505 121.81582 3062 ft 187 kts 63°
2026-04-24 04:13 11.86112 121.82758 2770 ft 184 kts 63°
2026-04-24 04:13 11.86691 121.83895 2511 ft 180 kts 63°
2026-04-24 04:13 11.87260 121.85022 2220 ft 175 kts 64°
2026-04-24 04:14 11.87802 121.86100 1952 ft 164 kts 63°
2026-04-24 04:14 11.88303 121.87100 1743 ft 151 kts 63°
2026-04-24 04:14 11.88765 121.88023 1530 ft 140 kts 63°
2026-04-24 04:14 11.89201 121.88891 1354 ft 133 kts 63°
2026-04-24 04:15 11.89612 121.89709 1181 ft 128 kts 63°
2026-04-24 04:15 11.90023 121.90525 1019 ft 127 kts 63°
2026-04-24 04:15 11.90422 121.91328 828 ft 126 kts 64°
2026-04-24 04:15 11.90815 121.92136 650 ft 126 kts 63°
2026-04-24 04:16 11.91211 121.92930 496 ft 126 kts 62°
2026-04-24 04:16 11.91618 121.93724 344 ft 126 kts 63°
2026-04-24 04:16 11.92017 121.94513 174 ft 125 kts 64°
2026-04-24 04:16 11.92411 121.95303 31 ft 118 kts 64°
2026-04-24 04:17 11.92676 121.95833 30 ft 53 kts 63°
2026-04-24 04:17 11.92827 121.96137 30 ft 43 kts 63°
2026-04-24 04:17 11.92930 121.96343 30 ft 16 kts 64°
2026-04-24 04:17 11.92967 121.96424 30 ft 7 kts 72°
2026-04-24 04:18 11.92938 121.96464 30 ft 8 kts 155°
2026-04-24 04:18 11.92881 121.96493 30 ft 9 kts 151°
2026-04-24 04:18 11.92822 121.96525 30 ft 9 kts 161°
2026-04-24 04:18 11.92774 121.96491 30 ft 10 kts 244°
2026-04-24 04:19 11.92743 121.96426 30 ft 7 kts 244°
2026-04-24 04:19 11.92714 121.96411 30 ft 5 kts 155°
2026-04-24 04:19 11.92683 121.96429 30 ft 1 kts 153°
2026-04-24 04:19 11.92680 121.96430 30 ft 0 kts 153°